Voltar ao catálogo

STARLINK-2379

AtivoComunicaçõesVLEO
NORAD 47798·PAYLOAD·🇺🇸 United States

Lançado Mar 11, 2021 de Cape Canaveral Space Force Station

Loading…

Próximas Passagens (próximas 24 horas)

TLE

AtualizadoSource: CelesTrak SupGP

Época: Sep 15, 2026, 02:00 UTC

1 47798C 21018M   26258.08381944 -.00016916  00000+0 -54392-3 0  2585
2 47798  53.1587  77.7485 0001289  85.4814 238.9137 15.31714234    19

Acompanhe STARLINK-2379 em tempo real com AllMySat

Download on the App Store